Location: Bukit Nyuki
(2.5885°N, 113.7476°E)
Time: 19:36:19
(UTC+00:00)

SL-16 R/B - Pass Details

Date: 18 May 2021
Orbit: 842 x 847 km, 71.0° (Epoch: 24 June)

Event Time Altitude Azimuth Distance (km) Brightness Sun altitude
Rises 21:20:26 0° 188° (S) 3,401 5.1 -13.4°
Reaches altitude 10° 21:22:55 10° 184° (S) 2,465 4.4 -12.9°
Maximum altitude 21:28:29 60° 105° (ESE) 961 2.8 -11.6°
Drops below altitude 10° 21:34:03 10° 26° (NNE) 2,460 5.3 -10.3°
Sets 21:36:31 0° 22° (NNE) 3,393 6.0 -9.7°
